This is the latest recevied weather packets stored in our database for station/object KI4HRG. If no packets are shown the sender has not sent any weather packets the latest 10 day(s).
| Time | Temp. | Humidity | Pressure | Rain* | Wind** | Luminosity | Snow |
|---|---|---|---|---|---|---|---|
| 1787842042 | 22.78° C | 99% | 1016.4 hPa | 0 mm | - | 118 W/m² | - |
| 1787841738 | 22.78° C | 99% | 1016.4 hPa | 0 mm | - | 117 W/m² | - |
| 1787841433 | 22.78° C | 99% | 1016.3 hPa | 0 mm | - | 121 W/m² | - |
| 1787841127 | 22.78° C | 99% | 1016.3 hPa | 0 mm | - | 125 W/m² | - |
| 1787840823 | 22.78° C | 99% | 1016.2 hPa | 0 mm | - | 129 W/m² | - |
| 1787840517 | 22.78° C | 99% | 1016.3 hPa | 0 mm | - | 134 W/m² | - |
| 1787840213 | 22.78° C | 99% | 1016.2 hPa | 0 mm | - | 130 W/m² | - |
| 1787839912 | 22.78° C | 99% | 1016.2 hPa | 0 mm | - | 124 W/m² | - |
| 1787839607 | 22.78° C | 99% | 1016.2 hPa | 0 mm | - | 121 W/m² | - |
| 1787839302 | 22.78° C | 99% | 1016.3 hPa | 0 mm | - | 118 W/m² | - |
| 1787839001 | 22.78° C | 99% | 1015.9 hPa | 0 mm | - | 121 W/m² | - |
| 1787838700 | 22.22° C | 99% | 1016.2 hPa | 0 mm | - | 126 W/m² | - |
| 1787838399 | 22.22° C | 99% | 1016.1 hPa | 0 mm | - | 133 W/m² | - |
| 1787838098 | 22.78° C | 99% | 1016.3 hPa | 0 mm | - | 138 W/m² | - |
| 1787837793 | 22.22° C | 99% | 1016.1 hPa | 0 mm | - | 139 W/m² | - |
| 1787837488 | 22.22° C | 99% | 1016.2 hPa | 0 mm | - | 134 W/m² | - |
| 1787837182 | 22.22° C | 99% | 1016.1 hPa | 0 mm | - | 133 W/m² | - |
| 1787836881 | 22.22° C | 99% | 1016.1 hPa | 0 mm | - | 147 W/m² | - |
| 1787836577 | 22.22° C | 99% | 1015.9 hPa | 0 mm | - | 134 W/m² | - |
| 1787836276 | 22.22° C | 99% | 1016 hPa | 0 mm | - | 127 W/m² | - |
| 1787835972 | 22.22° C | 99% | 1016 hPa | 0 mm | - | 115 W/m² | - |
| 1787835668 | 22.22° C | 99% | 1016 hPa | 0 mm | - | 99 W/m² | - |
| 1787835362 | 22.22° C | 99% | 1016.1 hPa | 0 mm | - | 101 W/m² | - |
| 1787835057 | 21.67° C | 99% | 1016 hPa | 0 mm | - | 104 W/m² | - |
| 1787834755 | 21.67° C | 99% | 1016.2 hPa | 0 mm | - | 87 W/m² | - |
* Rain latest hour (hover to see other rain measurements)
** Current wind speed in m/s (hover to see current wind gust speed)